Location: Unspecified
(0.0000°N, 0.0000°E)
Time: 12:13:10
(UTC+00:00)

SR - Pass Details

Date: 16 December 2018
Orbit: 581 x 875 km, 66.7° (Epoch: 16 July)

Event Time Altitude Azimuth Distance (km) Brightness Sun altitude
Rises 12:14:30 0° 338° (NNW) 2,807 ? 66.2°
Reaches altitude 10° 12:16:44 10° 337° (NNW) 1,894 ? 66.1°
Maximum altitude 12:20:57 81° 250° (WSW) 590 ? 65.9°
Drops below altitude 10° 12:25:11 10° 163° (SSE) 1,909 ? 65.6°
Sets 12:27:27 0° 162° (SSE) 2,831 ? 65.4°
